Location: Rosenheim
(47.8408°N, 12.2113°E)
Time: 08:44:14
(UTC+01:00)

Tiangong 2 - Visible Passes

Search period start: 24 November 2017 00:00
Search period end: 04 December 2017 00:00
Orbit: 386 x 392 km, 42.8° (Epoch: 24 November)

Date Brightness Start Highest point End Pass type
(mag) Time Alt. Az. Time Alt. Az. Time Alt. Az.
27 Nov 3.9 06:50:06 10° SSW 06:52:24 18° SSE 06:54:43 10° ESE visible
28 Nov 4.0 05:52:46 10° S 05:54:24 13° SSE 05:56:01 10° ESE visible
29 Nov 3.2 06:29:52 10° SW 06:32:32 24° SSE 06:35:12 10° ESE visible
30 Nov 3.4 05:33:21 16° S 05:34:27 19° SSE 05:36:48 10° ESE visible
01 Dec 4.6 04:38:05 10° ESE 04:38:05 10° ESE 04:38:07 10° ESE visible
01 Dec 2.7 06:10:23 14° SW 06:12:38 29° S 06:15:29 10° ESE visible
02 Dec 3.2 05:15:00 24° SSE 05:15:00 24° SSE 05:17:12 10° ESE visible
02 Dec 2.6 06:48:00 10° WSW 06:50:54 32° S 06:53:48 10° ESE visible
03 Dec 2.4 05:51:50 27° SSW 05:52:42 32° S 05:55:38 10° ESE visible
